User: anonymous   Login
Location: Cañada de la Miga
(34.7595°N, 106.2317°W)
Time: 10:57:08
(UTC+00:00)
Language:

A-11 Canister half - Orbit

View from above orbital plane
View from above orbital plane
View from above satellite
View from above satellite

Ground track
Ground track

The orbit data is extracted from the following two-line orbital elements,

1    51U 60009C   22276.95957051 -.00000006  00000-0  77028-3 0  9995
2    51  47.2114 273.2860 0105715 136.7306 224.1844 12.18282740766302
Epoch (UTC): 03 October 2022 23:01:46
Eccentricity: 0.0105715
inclination: 47.2114°
perigee height: 1515 km
apogee height: 1684 km
right ascension of ascending node: 273.2860°
argument of perigee: 136.7306°
revolutions per day: 12.18282740
mean anomaly at epoch: 224.1844°
orbit number at epoch: 76630

The dashed part of the orbit path shows where the satellite is in the earth's shadow,  

DLR